Location: Madrid
(40.4000°N, 3.6830°W)
Time: 20:28:32
(UTC+02:00)

ISS - Pass Details

Date: 29 March 2017
Orbit: 401 x 409 km, 51.6° (Epoch: 01 May)

Event Time Altitude Azimuth Distance (km) Brightness Sun altitude
Rises 21:24:53 0° 232° (SW) 2,305 0.6 -9.9°
Reaches altitude 10° 21:26:56 10° 233° (SW) 1,451 -0.5 -10.3°
Maximum altitude 21:30:12 88° 324° (NW) 408 -3.9 -10.9°
Drops below altitude 10° 21:33:29 10° 53° (NE) 1,464 -1.4 -11.5°
Enters shadow 21:33:51 - 53° (NE) 1,616 -1.1 -11.6°
